sat.trackr.live / text

‹ back to catalog

UNKNOWN

NORAD 82162

UNKNOWN UNKNOWN UNKNOWN

§ Identity

Operator
Country
Launch date
Launch site
Launch vehicle
Mass (kg)
RCS (m²)

External: N2YO · Heavens-Above

§ Orbital elements

Epoch: 2026-09-17T07:32:38.085216Z

Period
106.24 min
Inclination
100.4512°
Eccentricity
0.0051402
Mean motion
13.55477020 rev/d
Perigee alt
1,014.0 km
Apogee alt
1,090.4 km
Semi-major
7,430.3 km
B*
3.1339e-3
RAAN
205.9892°
Arg perigee
284.5740°
Mean anomaly
74.9698°
Rev number
54,202

§ Raw data

UNKNOWN1 82162U          26260.31432969  .00002143  00000+0  31339-2 0  99922 82162 100.4512 205.9892 0051402 284.5740  74.9698 13.55477020542021

JSON: /api/v1/satellites/82162 · /tle

For live sub-satellite position, see the globe view (requires WebGL).

§ Visibility from observer

Set your observer location to see the next 7 days of passes ≥ 10°. The values pass through the URL so the page stays shareable.

No JS? Fill the form by hand. The geolocation button needs JavaScript.